Castlegar, British Columbia

6:24 PM PDT on July 25, 2016 (GMT -0700)
Castlegar

Weather History for CYCG - May, 2013

Change the Weather History Date:

Tuesday, May 7, 2013

  Actual Average Record
Temperature  
Mean Temperature 66 °F -  
Max Temperature 87 °F 66 °F 87 °F (2013)
Min Temperature 46 °F 44 °F 33 °F (2000)
Cooling Degree Days 2    
Growing Degree Days 16 (Base 50)    
Moisture  
Dew Point 43 °F    
Average Humidity 50    
Maximum Humidity 96    
Minimum Humidity 16    
Precipitation  
Precipitation 0.00 in 0.08 in - ()
Sea Level Pressure  
Sea Level Pressure 29.91 in    
Wind  
Wind Speed 5 mph ()    
Max Wind Speed 12 mph    
Max Gust Speed -    
Visibility 15.0 miles    
Events      
Averages and records for this station are not official NWS values.
T = Trace of Precipitation, MM = Missing Value Source: Averaged Metar Reports

Daily Weather History Graph

Daily Weather History Graph

Search for Another Location

Airport or City:

Trip Planner

Search our weather history database for the weather conditions in past years. The results will help you decide how hot, cold, wet, or windy it might be!

Date:

Astronomy

May. 07, 2013 Rise Set
Actual Time 5:18 AM PDT 8:16 PM PDT
Civil Twilight 4:41 AM PDT 8:53 PM PDT
Nautical Twilight 3:53 AM PDT 9:42 PM PDT
Astronomical Twilight 2:54 AM PDT 10:41 PM PDT
Moon 4:07 AM PDT (5/7) 6:12 PM PDT (5/7)
Length of Visible Light 16h 12m
Length of Day
14h 58m
Waning Crescent, 5% of the Moon is Illuminated
May 7
Waning Crescent
May 9
New
May 17
First Quarter
May 24
Full
May 31
Last Quarter

Hourly Weather History & Observations

Time (PDT) Temp. Dew Point Humidity Pressure Visibility Wind Dir Wind Speed Gust Speed Precip Events Conditions
5:00 AM 49 °F 48 °F 96% 30.21 in - SSE 6.9 mph - -  
6:00 AM 42.8 °F 37.4 °F 81% 29.89 in 15.0 mi NNW 2.3 mph - N/A   Clear
7:00 AM 44.6 °F 39.2 °F 81% 29.91 in 15.0 mi SE 2.3 mph - N/A   Clear
8:00 AM 53.6 °F 41.0 °F 62% 29.91 in 15.0 mi SSE 2.3 mph - N/A   Clear
9:00 AM 59.0 °F 39.2 °F 48% 29.91 in 15.0 mi North 9.2 mph - N/A   Clear
10:00 AM 64.4 °F 39.2 °F 40% 29.90 in 15.0 mi North 11.5 mph - N/A   Clear
11:00 AM 59 °F 54 °F 77% 30.19 in - South 11.5 mph - -  
11:00 AM 69.8 °F 41.0 °F 35% 29.89 in 15.0 mi NNW 10.4 mph - N/A   Clear
12:00 PM 73.4 °F 42.8 °F 33% 29.87 in 15.0 mi NNW 5.8 mph - N/A   Clear
1:00 PM 77.0 °F 42.8 °F 29% 29.85 in 15.0 mi NNW 6.9 mph - N/A   Clear
2:00 PM 78.8 °F 44.6 °F 30% 29.82 in 15.0 mi North 5.8 mph - N/A   Partly Cloudy
3:00 PM 82.4 °F 44.6 °F 26% 29.80 in 15.0 mi NW 2.3 mph - N/A   Partly Cloudy
4:00 PM 87.8 °F 35.6 °F 16% 29.78 in 15.0 mi West 4.6 mph - N/A   Partly Cloudy
5:00 PM 51 °F 50 °F 94% 30.19 in - SSE 5.8 mph - -  
5:00 PM 87.8 °F 37.4 °F 17% 29.77 in 15.0 mi SW 3.5 mph - N/A   Partly Cloudy
6:00 PM 87.8 °F 37.4 °F 17% 29.76 in 15.0 mi WNW 2.3 mph - N/A   Partly Cloudy
7:00 PM 78.8 °F 44.6 °F 30% 29.77 in 15.0 mi NNW 9.2 mph - N/A   Partly Cloudy
8:00 PM 69.8 °F 44.6 °F 40% 29.79 in 15.0 mi North 9.2 mph - N/A   Partly Cloudy
9:00 PM 66.2 °F 46.4 °F 49% 29.82 in 15.0 mi NNE 3.5 mph - N/A   Mostly Cloudy
11:00 PM 49 °F 48 °F 95% 30.22 in - South 4.6 mph - -